Wind_Speed
7 8 4 3 5 6 5 6 5 6 9 9 10 11 9 18 23 26 29 27 28 25 28 33 36 35 34 29 26 27 29 31 28 26 24 22 19 21 22 30 26 25 36 34
4 4 2 6 8 6 5 5 4 3 6 7 4 5 10 19 24 30 28 27 23 22 22 16 24 33 39 33 34 30 28 31 30 26 27 21 19 20 21 26 21 24 23 26
5 5 6 4 6 6 3 4 6 5 9 3 3 6 14 24 26 30 29 20 20 19 19 25 24 23 29 27 29 28 26 31 24 29 16 20 23 24 24 22 21 24 29 30
4 4 6 5 4 5 7 5 6 4 5 8 13 14 13 22 26 22 22 19 16 13 6 12 15 14 21 25 25 25 26 28 24 18 18 22 21 20 19 20 20 22 25 29
4 4 6 5 2 2 1 3 2 2 4 5 10 10 3 24 25 24 25 25 20 8 18 30 37 21 21 24 22 24 28 26 18 14 16 16 15 15 18 19 21 23 26 30
2 5 5 6 6 15 2 4 2 4 5 5 13 4 6 30 28 29 29 28 17 13 16 21 20 18 25 24 26 23 20 17 15 15 13 12 11 11 12 15 18 23 28 32
5 4 6 5 12 10 4 5 18 5 11 16 6 11 17 32 35 31 28 28 24 19 22 21 22 24 23 21 21 19 15 12 9 7 8 7 5 7 9 12 17 22 27 31
1 2 7 7 7 2 6 22 14 16 9 25 32 19 11 38 37 30 27 30 24 24 22 23 23 21 18 17 17 14 12 7 5 5 3 1 2 5 10 16 20 24 28 29
6 5 3 8 8 7 11 16 16 20 16 20 32 26 22 35 35 30 28 28 25 25 26 23 20 15 15 18 16 14 10 8 6 5 4 1 3 8 13 17 22 24 24 24
3 4 4 9 18 9 13 23 18 11 14 15 28 33 31 35 36 29 32 28 24 26 24 21 17 13 10 16 16 15 10 7 6 6 4 2 6 11 13 19 21 23 26 30
5 9 16 9 6 16 18 18 12 6 11 6 12 27 29 30 31 32 35 28 24 25 21 19 18 17 16 15 17 14 11 10 12 9 5 5 9 13 17 22 25 27 27 28
6 11 9 13 17 22 18 17 18 11 7 6 5 19 25 23 24 27 29 27 23 23 20 21 21 20 18 16 14 14 13 16 13 8 6 7 10 15 18 19 22 25 21 25
14 8 16 25 25 24 22 18 14 11 9 16 8 18 21 21 25 26 27 25 25 24 24 22 22 20 18 18 19 15 16 16 10 7 5 6 11 13 14 17 20 25 28 28
28 27 22 23 22 21 17 14 13 14 10 11 26 30 32 30 29 29 29 28 27 26 25 23 22 21 20 22 20 18 17 12 7 5 5 6 8 9 10 13 18 24 28 28
19 17 20 21 23 23 17 12 12 15 14 11 11 19 26 32 30 28 27 24 24 25 25 25 25 24 25 24 21 21 17 12 7 6 5 3 4 4 4 9 13 18 22 23
15 17 21 25 29 26 18 14 13 13 15 11 3 13 19 28 28 26 22 21 23 24 23 24 25 26 26 23 21 19 15 11 6 7 8 6 3 2 2 2 7 10 14 18
19 22 22 24 29 29 20 15 13 8 18 11 4 6 18 22 20 19 20 21 19 19 20 20 19 24 24 23 23 20 17 13 8 7 8 8 7 5 5 4 3 2 6 10
22 24 23 22 18 24 22 17 14 11 14 14 9 13 21 23 21 20 20 18 17 16 20 20 20 20 23 24 23 21 19 15 12 9 8 10 8 7 7 5 4 4 2 2
16 20 21 19 17 20 22 21 14 13 13 13 14 20 27 25 21 18 18 18 17 15 17 19 20 22 23 25 24 21 21 19 16 12 11 11 12 10 8 5 3 3 3 0
17 16 19 18 13 13 12 11 17 17 15 15 15 21 27 24 20 16 16 18 13 7 10 16 22 23 23 24 25 24 23 21 17 15 15 15 15 13 11 8 6 5 4 5
15 10 10 10 13 13 9 7 14 20 22 21 12 12 17 17 18 19 17 17 12 10 10 11 17 20 24 26 27 25 21 16 16 17 18 17 16 15 14 13 12 11 9 7
13 10 7 8 13 12 9 15 16 21 24 26 19 23 15 18 22 22 14 8 12 11 12 10 11 17 22 26 25 22 20 17 17 16 16 16 16 16 16 16 14 12 12 12
9 8 7 8 12 10 11 13 11 25 25 22 23 28 22 19 20 23 18 13 14 13 14 9 5 13 21 25 25 23 22 21 19 17 16 14 15 20 21 20 18 13 14 14
8 10 6 3 18 4 2 7 8 27 23 13 15 13 15 17 23 19 9 11 16 14 14 9 9 10 17 26 27 23 24 22 22 21 21 19 22 20 19 21 21 21 16 14
6 8 3 8 16 8 11 12 14 9 8 11 14 16 15 16 18 18 16 13 15 16 14 12 11 12 13 16 19 22 25 24 24 26 26 27 26 22 18 20 24 22 22 20
5 8 15 7 13 17 18 17 9 12 11 15 16 16 16 15 13 13 16 16 16 17 18 14 12 14 17 17 17 20 22 25 22 22 23 21 19 21 21 20 22 25 26 24
13 11 13 16 12 10 12 11 9 12 11 14 13 14 14 13 13 14 15 16 15 12 12 13 14 17 19 19 20 22 22 21 21 23 24 25 24 23 21 21 23 23 24 25
Wind_Direction
277 257 257 237 243 178 153 180 161 257 193 245 237 225 181 182 186 195 203 196 198 200 210 217 217 214 222 229 242 241 240 238 243 248 254 257 263 260 255 255 269 268 264 260
277 298 301 244 246 244 216 147 231 176 270 242 167 182 169 185 187 195 196 197 198 202 204 206 215 231 235 242 245 248 244 246 240 243 242 250 257 257 261 262 272 259 253 249
263 316 312 289 233 217 201 190 158 163 230 242 196 193 205 204 192 195 192 189 201 208 208 214 222 212 221 222 233 240 249 245 240 235 238 240 248 253 259 263 258 260 259 259
246 332 238 239 268 229 224 230 199 159 228 217 226 211 219 205 193 198 190 204 203 198 240 221 213 213 237 222 226 237 229 232 242 240 241 243 247 250 258 268 269 266 260 256
188 218 289 335 336 86 42 278 104 314 267 237 154 131 193 206 200 204 207 199 187 230 278 264 254 214 248 228 229 222 225 226 225 223 232 241 255 270 276 276 277 276 274 271
142 190 216 232 331 348 290 283 234 150 184 206 138 147 237 201 183 189 200 187 189 149 131 144 169 203 209 200 205 209 219 223 226 235 249 269 275 277 285 290 288 283 280 277
219 235 283 317 296 310 179 250 325 292 192 192 226 193 225 183 179 183 190 195 176 177 168 181 189 205 208 203 205 203 204 208 214 245 259 260 279 297 304 304 301 299 296 288
181 212 258 335 358 45 304 304 315 321 294 213 229 225 201 186 187 187 191 188 191 196 189 192 195 197 193 194 189 185 192 204 243 242 224 236 312 332 337 336 332 332 325 312
185 228 238 344 296 313 4 324 325 313 298 254 228 238 216 195 190 193 192 191 189 187 186 190 195 199 204 192 183 183 192 225 245 195 168 153 4 359 354 348 346 346 345 344
22 290 260 257 303 280 346 354 334 306 277 253 222 219 213 195 197 192 186 193 194 190 193 187 177 180 196 192 187 189 204 236 224 179 169 105 26 11 7 7 9 359 2 359
258 288 300 325 236 314 323 339 336 296 260 267 196 184 191 195 199 194 198 202 194 196 197 191 184 185 186 193 196 199 221 217 186 178 155 79 38 25 23 24 15 8 4 0
238 260 250 278 315 319 317 320 336 331 303 260 246 200 175 181 183 180 187 199 204 199 197 195 191 191 195 201 201 204 206 182 180 174 131 70 45 41 36 29 22 21 9 359
240 259 296 288 289 301 304 297 302 327 333 329 216 212 212 185 190 197 198 200 206 210 208 205 202 202 201 198 193 197 191 181 174 167 133 82 59 51 40 32 30 31 22 21
276 286 289 275 275 297 303 289 276 314 269 334 205 242 221 199 199 202 207 210 209 207 209 215 215 211 206 194 191 189 187 184 174 180 161 96 66 56 41 33 35 40 33 33
274 277 261 269 274 283 293 284 277 288 250 309 250 214 215 209 208 208 207 203 202 207 213 216 212 205 194 192 193 192 194 196 198 204 190 148 75 44 34 36 37 45 45 45
293 278 273 267 270 267 275 272 276 268 237 301 302 210 221 219 206 199 200 209 209 209 205 203 206 202 195 195 198 196 196 199 219 228 219 218 217 300 303 346 38 39 53 49
283 286 284 276 268 259 251 258 244 244 239 273 345 205 195 198 204 209 216 215 215 214 208 206 206 205 201 204 204 203 200 203 220 228 228 240 241 253 259 259 265 6 40 53
277 282 274 274 276 250 254 248 233 218 218 238 257 218 216 209 213 212 206 199 198 211 215 213 209 210 211 208 210 213 212 218 229 235 235 233 233 234 228 222 229 251 300 357
293 277 267 265 271 260 254 245 243 228 213 220 230 219 210 205 208 195 199 203 207 214 209 211 209 206 209 211 211 216 218 224 231 240 233 221 207 201 200 195 197 223 237 28
319 281 267 264 252 252 258 258 238 239 210 198 214 204 202 199 204 202 209 211 212 215 211 218 217 214 208 216 215 217 220 223 235 237 221 215 212 213 217 225 230 243 252 237
331 315 282 246 225 236 253 264 257 238 221 207 211 187 203 206 211 206 206 208 194 192 201 212 221 217 211 210 215 219 219 218 220 209 211 215 220 226 230 242 251 255 259 254
323 313 281 218 224 219 294 276 269 240 222 208 235 223 230 220 211 207 216 235 197 201 196 201 219 212 207 207 210 207 205 202 204 210 220 234 244 250 247 241 245 256 258 252
324 310 283 243 228 230 286 278 247 223 204 209 214 205 242 215 211 204 208 202 199 203 199 193 199 206 200 200 201 205 209 210 217 225 229 249 287 267 250 245 239 245 254 246
345 337 309 180 159 140 75 71 157 178 193 212 192 208 220 208 206 210 214 206 201 201 209 204 206 204 205 210 212 221 216 221 227 232 235 253 263 283 251 244 246 248 248 257
1 1 358 145 144 103 109 115 125 149 175 180 196 197 201 206 211 205 197 201 209 210 210 215 207 209 212 214 221 228 230 239 245 247 249 253 256 267 259 248 245 251 255 255
50 89 59 97 150 170 162 160 161 153 181 180 184 188 188 193 191 197 200 200 207 210 207 209 210 216 225 228 231 234 238 241 245 248 250 253 257 259 258 252 248 248 250 250
56 99 96 78 116 149 174 197 214 232 214 199 196 182 186 186 188 194 192 194 200 203 214 224 228 233 236 240 244 246 246 246 247 250 252 255 259 264 267 266 259 256 252 254
Height
1467 1461 1454 1450 1452 1453 1456 1460 1469 1459 1460 1444 1435 1431 1434 1439 1440 1443 1444 1449 1454 1461 1468 1472 1476 1480 1486 1489 1493 1497 1503 1506 1509 1512 1516 1519 1522 1525 1527 1526 1525 1526 1525 1527
1468 1457 1453 1453 1449 1448 1447 1447 1451 1450 1454 1434 1433 1433 1436 1438 1441 1441 1445 1449 1454 1460 1463 1467 1472 1478 1484 1487 1490 1494 1499 1501 1501 1503 1507 1515 1518 1519 1521 1521 1520 1520 1518 1516
1478 1462 1455 1461 1448 1442 1439 1435 1438 1455 1442 1433 1432 1433 1433 1435 1440 1440 1445 1449 1451 1455 1458 1461 1464 1469 1475 1478 1484 1490 1495 1497 1502 1500 1502 1509 1513 1514 1514 1514 1515 1515 1515 1515
1480 1469 1474 1446 1435 1434 1436 1430 1430 1431 1430 1429 1424 1426 1430 1433 1438 1444 1447 1446 1451 1454 1455 1457 1459 1463 1469 1474 1480 1486 1493 1496 1493 1493 1499 1506 1509 1509 1510 1510 1510 1509 1508 1507
1478 1480 1459 1440 1434 1434 1436 1434 1428 1430 1428 1425 1426 1428 1431 1434 1439 1443 1446 1447 1451 1451 1448 1447 1442 1453 1466 1471 1478 1485 1490 1492 1492 1495 1498 1502 1505 1506 1507 1506 1505 1504 1503 1501
1478 1473 1472 1447 1437 1434 1432 1447 1427 1425 1427 1429 1425 1439 1425 1425 1437 1440 1445 1450 1451 1450 1450 1452 1450 1460 1466 1470 1476 1480 1485 1488 1489 1493 1497 1500 1502 1502 1502 1501 1500 1498 1495 1492
1471 1469 1456 1444 1437 1432 1446 1450 1432 1427 1422 1426 1425 1414 1416 1423 1432 1438 1444 1450 1451 1452 1454 1456 1462 1463 1467 1470 1474 1478 1484 1487 1491 1494 1495 1497 1498 1498 1497 1496 1494 1490 1485 1481
1470 1466 1464 1441 1434 1439 1445 1431 1431 1425 1425 1424 1421 1417 1417 1421 1428 1436 1442 1447 1449 1451 1454 1458 1465 1467 1468 1469 1474 1478 1484 1488 1493 1493 1494 1494 1494 1494 1492 1490 1487 1482 1476 1470
1464 1457 1442 1441 1439 1439 1439 1436 1429 1424 1421 1422 1418 1418 1417 1419 1426 1433 1439 1446 1449 1453 1457 1459 1462 1464 1468 1473 1477 1481 1486 1489 1491 1490 1491 1492 1491 1491 1488 1484 1480 1475 1469 1462
1456 1443 1441 1440 1438 1437 1436 1432 1427 1423 1419 1418 1412 1414 1415 1419 1423 1431 1437 1443 1448 1452 1456 1460 1463 1467 1471 1474 1479 1482 1484 1487 1487 1488 1490 1491 1490 1489 1485 1482 1478 1474 1467 1458
1453 1443 1438 1434 1434 1436 1434 1431 1427 1422 1420 1419 1419 1411 1415 1419 1423 1427 1434 1441 1448 1453 1457 1459 1463 1467 1471 1475 1478 1479 1482 1484 1487 1489 1490 1491 1490 1487 1483 1481 1478 1473 1466 1459
1447 1439 1438 1433 1433 1432 1432 1430 1428 1424 1419 1421 1422 1421 1416 1421 1427 1430 1436 1442 1447 1452 1457 1460 1464 1467 1470 1474 1476 1478 1480 1483 1488 1489 1489 1489 1488 1486 1485 1485 1481 1475 1469 1462
1435 1435 1435 1432 1429 1429 1428 1428 1427 1423 1422 1421 1420 1422 1422 1419 1428 1433 1438 1442 1447 1452 1456 1459 1463 1465 1468 1472 1475 1477 1480 1485 1486 1489 1488 1489 1487 1487 1488 1488 1483 1477 1472 1464
1430 1429 1427 1425 1423 1424 1424 1424 1423 1423 1423 1429 1426 1424 1423 1422 1427 1432 1438 1444 1449 1453 1456 1458 1461 1464 1467 1470 1475 1478 1482 1485 1486 1487 1489 1488 1487 1489 1492 1490 1485 1481 1475 1468
1421 1421 1420 1419 1419 1418 1419 1421 1419 1419 1421 1422 1418 1418 1420 1423 1427 1432 1440 1445 1450 1453 1456 1458 1460 1463 1467 1472 1475 1480 1481 1482 1484 1487 1488 1489 1488 1492 1494 1492 1489 1484 1481 1477
1419 1418 1416 1413 1411 1413 1413 1414 1414 1414 1416 1417 1415 1413 1417 1425 1429 1435 1439 1442 1446 1448 1452 1456 1459 1463 1466 1470 1475 1478 1481 1483 1485 1485 1487 1490 1492 1493 1494 1493 1491 1489 1486 1484
1412 1411 1409 1406 1404 1402 1409 1410 1411 1409 1410 1411 1410 1416 1420 1425 1430 1431 1436 1440 1444 1448 1451 1453 1457 1460 1465 1470 1473 1476 1480 1481 1482 1484 1486 1491 1492 1493 1493 1493 1492 1492 1490 1488
1406 1403 1402 1400 1399 1398 1401 1405 1407 1409 1410 1411 1412 1415 1420 1423 1426 1429 1435 1439 1442 1445 1448 1451 1454 1458 1463 1467 1471 1474 1477 1479 1481 1484 1487 1489 1491 1492 1493 1492 1492 1492 1490 1489
1398 1395 1394 1394 1394 1394 1397 1400 1404 1405 1408 1406 1410 1413 1419 1425 1429 1431 1436 1438 1439 1441 1445 1448 1451 1454 1458 1463 1467 1471 1474 1478 1480 1482 1485 1487 1490 1492 1493 1492 1492 1491 1490 1489
1393 1390 1389 1390 1391 1392 1393 1395 1400 1400 1404 1406 1407 1411 1418 1423 1430 1433 1437 1438 1439 1441 1444 1447 1449 1452 1455 1460 1465 1469 1473 1475 1478 1480 1484 1487 1489 1491 1492 1492 1491 1490 1489 1489
1390 1386 1385 1386 1388 1391 1391 1392 1392 1393 1398 1401 1403 1408 1414 1418 1429 1434 1436 1438 1439 1440 1442 1445 1447 1449 1453 1457 1462 1465 1470 1473 1476 1479 1482 1485 1487 1489 1489 1489 1489 1489 1489 1488
1387 1383 1383 1384 1385 1388 1390 1388 1387 1388 1392 1397 1402 1405 1410 1417 1427 1432 1434 1436 1438 1439 1442 1443 1445 1447 1450 1454 1459 1464 1468 1471 1475 1478 1480 1483 1484 1486 1486 1486 1486 1486 1487 1488
1385 1383 1382 1382 1383 1385 1385 1381 1380 1383 1388 1395 1400 1405 1410 1417 1423 1428 1430 1434 1436 1439 1442 1443 1444 1446 1448 1452 1457 1462 1465 1468 1472 1474 1476 1477 1478 1479 1480 1481 1481 1482 1483 1484
1384 1381 1378 1378 1383 1386 1384 1381 1380 1385 1392 1398 1401 1406 1412 1416 1421 1426 1428 1430 1434 1437 1441 1442 1444 1446 1449 1451 1455 1458 1461 1464 1466 1469 1470 1472 1472 1472 1473 1475 1476 1477 1478 1479
1384 1382 1379 1378 1382 1384 1384 1387 1388 1391 1395 1398 1404 1408 1411 1415 1419 1422 1424 1427 1431 1435 1438 1440 1442 1445 1447 1450 1453 1455 1457 1459 1461 1463 1465 1466 1467 1468 1467 1468 1469 1470 1472 1473
1387 1385 1382 1381 1385 1388 1388 1389 1393 1395 1400 1402 1406 1408 1411 1415 1417 1419 1422 1425 1430 1432 1434 1437 1439 1442 1445 1447 1449 1450 1452 1454 1455 1457 1458 1459 1460 1461 1462 1461 1462 1463 1464 1466
1391 1389 1388 1388 1389 1390 1392 1394 1395 1397 1399 1402 1405 1409 1411 1413 1416 1419 1421 1425 1428 1429 1431 1434 1436 1438 1441 1442 1443 1445 1446 1447 1449 1450 1451 1452 1452 1453 1454 1455 1456 1457 1457 1458